SQ9IWE-13 Weather Reports


Display with metric or nautical units.
time (UTC)temp
F
wind
direction
speed
MPH
gust
MPH
rain 1hr
in
rain 24hr
in
rain mn
in
humidity
%
barometer
mb
20260901070001 72 0 0.0 0.0 0.00 0.00 0.00 62 1017.7
20260901065001 71 0 0.0 0.0 0.00 0.00 0.00 64 1017.7
20260901064001 70 0 0.0 0.0 0.00 0.00 0.00 64 1017.5
20260901063001 71 0 0.0 0.0 0.00 0.00 0.00 64 1017.5
20260901062001 71 0 0.0 0.0 0.00 0.00 0.00 64 1017.5
20260901061001 72 0 0.0 0.0 0.00 0.00 0.00 64 1017.4
20260901060001 69 0 0.0 0.0 0.00 0.00 0.00 67 1017.2
20260901055001 71 0 0.0 0.0 0.00 0.00 0.00 65 1017.1
20260901054001 69 0 0.0 0.0 0.00 0.00 0.00 69 1017.0
20260901053001 67 0 0.0 0.0 0.00 0.00 0.00 74 1016.9
20260901052001 66 0 0.0 0.0 0.00 0.00 0.00 77 1016.7
20260901051001 61 0 0.0 0.0 0.00 0.00 0.00 87 1016.6
20260901050001 60 0 0.0 0.0 0.00 0.00 0.00 89 1016.5
20260901045001 60 0 0.0 0.0 0.00 0.00 0.00 91 1016.6
20260901044001 59 0 0.0 0.0 0.00 0.00 0.00 92 1016.3
20260901043000 59 0 0.0 0.0 0.00 0.00 0.00 93 1016.1
20260901042000 59 0 0.0 0.0 0.00 0.00 0.00 93 1016.1
20260901041000 59 0 0.0 0.0 0.00 0.00 0.00 92 1016.1
20260901040000 59 0 0.0 0.0 0.00 0.00 0.00 92 1016.0
20260901035000 59 0 0.0 0.0 0.00 0.00 0.00 92 1016.0
20260901034000 59 0 0.0 0.0 0.00 0.00 0.00 91 1015.9
20260901033000 59 0 0.0 0.0 0.00 0.00 0.00 90 1015.9
20260901032000 59 0 0.0 0.0 0.00 0.00 0.00 90 1015.8
20260901031001 60 0 0.0 0.0 0.00 0.00 0.00 89 1015.8
20260901025001 61 0 0.0 0.0 0.00 0.00 0.00 87 1015.6
20260901024001 61 0 0.0 0.0 0.00 0.00 0.00 86 1015.7
20260901023001 61 0 0.0 0.0 0.00 0.00 0.00 87 1015.8
20260901022001 61 0 0.0 0.0 0.00 0.00 0.00 88 1015.8
20260901021001 62 0 0.0 0.0 0.00 0.00 0.00 87 1015.8
20260901020001 62 0 0.0 0.0 0.00 0.00 0.00 86 1015.6
20260901015001 63 0 0.0 0.0 0.00 0.00 0.00 86 1015.5
20260901014001 63 0 0.0 0.0 0.00 0.00 0.00 85 1015.5
20260901013001 64 0 0.0 0.0 0.00 0.00 0.00 85 1015.7
20260901012001 64 0 0.0 0.0 0.00 0.00 0.00 84 1015.6
20260901011001 64 0 0.0 0.0 0.00 0.00 0.00 84 1015.5
20260901010001 64 0 0.0 0.0 0.00 0.00 0.00 83 11.0
20260901005001 64 0 0.0 0.0 0.00 0.00 0.00 85 1015.7
20260901004001 64 0 0.0 0.0 0.00 0.00 0.00 86 1015.8
20260901003001 63 0 0.0 0.0 0.00 0.00 0.00 87 1015.8
20260901002001 62 0 0.0 0.0 0.00 0.00 0.00 90 1015.8
20260901001001 62 0 0.0 0.0 0.00 0.00 0.00 92 1015.9
20260901000001 62 0 0.0 0.0 0.00 0.00 0.00 92 1015.8
20260831235001 62 0 0.0 0.0 0.00 0.00 0.00 92 1015.8
20260831234001 62 0 0.0 0.0 0.00 0.00 0.00 93 1015.9
20260831233001 62 0 0.0 0.0 0.00 0.00 0.00 92 1015.9
20260831232001 62 0 0.0 0.0 0.00 0.00 0.00 92 1016.0
20260831231001 62 0 0.0 0.0 0.00 0.00 0.00 92 1016.0
20260831230001 62 0 0.0 0.0 0.00 0.00 0.00 93 1016.0
20260831225001 62 0 0.0 0.0 0.00 0.00 0.00 92 1016.2
20260831224001 62 0 0.0 0.0 0.00 0.00 0.00 92 1016.2
20260831223001 62 0 0.0 0.0 0.00 0.00 0.00 92 1016.1
20260831222001 62 0 0.0 0.0 0.00 0.00 0.00 91 1016.2
20260831221000 63 0 0.0 0.0 0.00 0.00 0.00 91 1016.1
20260831220000 63 0 0.0 0.0 0.00 0.00 0.00 91 1016.0
20260831215000 63 0 0.0 0.0 0.00 0.00 0.00 90 1016.0
20260831214000 63 0 0.0 0.0 0.00 0.00 0.00 90 1015.9
20260831213000 63 0 0.0 0.0 0.00 0.00 0.00 89 1015.9
20260831212000 64 0 0.0 0.0 0.00 0.00 0.00 88 1015.8
20260831211000 64 0 0.0 0.0 0.00 0.00 0.00 87 1015.6
20260831205000 64 0 0.0 0.0 0.00 0.00 0.00 85 1015.6
20260831204000 65 0 0.0 0.0 0.00 0.00 0.00 85 1015.4
20260831203001 65 0 0.0 0.0 0.00 0.00 0.00 85 1015.4
20260831201001 66 0 0.0 0.0 0.00 0.00 0.00 85 1015.4
20260831200001 66 0 0.0 0.0 0.00 0.00 0.00 84 1015.4
20260831195001 66 0 0.0 0.0 0.00 0.00 0.00 84 1015.4
20260831194001 66 0 0.0 0.0 0.00 0.00 0.00 83 1015.3
20260831193001 67 0 0.0 0.0 0.00 0.00 0.00 82 1015.3
20260831192001 67 0 0.0 0.0 0.00 0.00 0.00 81 1015.3
20260831191001 68 0 0.0 0.0 0.00 0.00 0.00 80 1015.2
20260831190001 68 0 0.0 0.0 0.00 0.00 0.00 79 1015.2
20260831185001 69 0 0.0 0.0 0.00 0.00 0.00 78 1015.3
20260831184001 69 0 0.0 0.0 0.00 0.00 0.00 78 1015.2
20260831183001 69 0 0.0 0.0 0.00 0.00 0.00 77 1015.1
20260831182001 70 0 0.0 0.0 0.00 0.00 0.00 76 1015.0
20260831174001 72 0 0.0 0.0 0.00 0.00 0.00 72 1014.5
20260831173001 73 0 0.0 0.0 0.00 0.00 0.00 71 1014.2
20260831172001 74 0 0.0 0.0 0.00 0.00 0.00 71 1014.2
20260831171001 74 0 0.0 0.0 0.00 0.00 0.00 69 1014.1
20260831170001 75 0 0.0 0.0 0.00 0.00 0.00 68 1014.1
20260831165001 76 0 0.0 0.0 0.00 0.00 0.00 68 1014.1
20260831164001 76 0 0.0 0.0 0.00 0.00 0.00 67 1014.0
20260831163001 76 0 0.0 0.0 0.00 0.00 0.00 67 1014.0
20260831162001 76 0 0.0 0.0 0.00 0.00 0.00 67 1013.9
20260831161001 76 0 0.0 0.0 0.00 0.00 0.00 67 1013.8
20260831160001 76 0 0.0 0.0 0.00 0.00 0.00 67 1013.9
20260831155001 76 0 0.0 0.0 0.00 0.00 0.00 67 1013.8
20260831154001 76 0 0.0 0.0 0.00 0.00 0.00 67 1013.9
20260831153000 76 0 0.0 0.0 0.00 0.00 0.00 66 1014.0
20260831152000 77 0 0.0 0.0 0.00 0.00 0.00 65 1014.0
20260831151000 77 0 0.0 0.0 0.00 0.00 0.00 64 1014.1
20260831150000 78 0 0.0 0.0 0.00 0.00 0.00 63 1014.1
20260831145000 78 0 0.0 0.0 0.00 0.00 0.00 63 1014.1
20260831144000 78 0 0.0 0.0 0.00 0.00 0.00 64 1014.2
20260831143000 78 0 0.0 0.0 0.00 0.00 0.00 65 1014.1
20260831142000 77 0 0.0 0.0 0.00 0.00 0.00 65 1014.2
20260831141000 78 0 0.0 0.0 0.00 0.00 0.00 65 1014.1
20260831140001 79 0 0.0 0.0 0.00 0.00 0.00 62 1014.1
20260831135001 79 0 0.0 0.0 0.00 0.00 0.00 61 1014.2
20260831133001 79 0 0.0 0.0 0.00 0.00 0.00 61 1014.2
20260831132001 79 0 0.0 0.0 0.00 0.00 0.00 61 1014.1
20260831131001 79 0 0.0 0.0 0.00 0.00 0.00 61 1014.1
20260831130001 78 0 0.0 0.0 0.00 0.00 0.00 61 1014.2
20260831125001 78 0 0.0 0.0 0.00 0.00 0.00 61 11.0
20260831124001 79 0 0.0 0.0 0.00 0.00 0.00 60 1014.1
20260831123001 80 0 0.0 0.0 0.00 0.00 0.00 59 1014.2
20260831122001 81 0 0.0 0.0 0.00 0.00 0.00 59 1014.1
20260831120001 82 0 0.0 0.0 0.00 0.00 0.00 60 1014.1
20260831115001 81 0 0.0 0.0 0.00 0.00 0.00 60 1014.0
20260831114001 79 0 0.0 0.0 0.00 0.00 0.00 62 1014.0
20260831113001 77 0 0.0 0.0 0.00 0.00 0.00 66 1014.1
20260831112001 76 0 0.0 0.0 0.00 0.00 0.00 65 1014.2
20260831111001 77 0 0.0 0.0 0.00 0.00 0.00 67 1014.2
20260831110001 76 0 0.0 0.0 0.00 0.00 0.00 66 1014.3
20260831105001 77 0 0.0 0.0 0.00 0.00 0.00 65 1014.3
20260831104001 77 0 0.0 0.0 0.00 0.00 0.00 64 1014.4
20260831103001 77 0 0.0 0.0 0.00 0.00 0.00 63 1014.3
20260831102001 78 0 0.0 0.0 0.00 0.00 0.00 62 1014.4
20260831101001 79 0 0.0 0.0 0.00 0.00 0.00 63 1014.5
20260831100001 78 0 0.0 0.0 0.00 0.00 0.00 64 1014.3
20260831095001 77 0 0.0 0.0 0.00 0.00 0.00 63 1014.3
20260831094001 77 0 0.0 0.0 0.00 0.00 0.00 64 1014.3
20260831093001 77 0 0.0 0.0 0.00 0.00 0.00 62 1014.4
20260831092001 77 0 0.0 0.0 0.00 0.00 0.00 60 1014.3
20260831091001 77 0 0.0 0.0 0.00 0.00 0.00 60 1014.1
20260831090001 78 0 0.0 0.0 0.00 0.00 0.00 59 1014.2
20260831085000 77 0 0.0 0.0 0.00 0.00 0.00 59 1014.1
20260831084001 77 0 0.0 0.0 0.00 0.00 0.00 59 1014.2
20260831083000 80 0 0.0 0.0 0.00 0.00 0.00 57 1014.3
20260831082000 82 0 0.0 0.0 0.00 0.00 0.00 56 1014.3
20260831081000 81 0 0.0 0.0 0.00 0.00 0.00 57 1014.2
20260831080000 80 0 0.0 0.0 0.00 0.00 0.00 58 1014.3
20260831075000 79 0 0.0 0.0 0.00 0.00 0.00 59 1014.4
20260831074000 77 0 0.0 0.0 0.00 0.00 0.00 61 1014.3
20260831073000 76 0 0.0 0.0 0.00 0.00 0.00 64 1014.4
20260831072000 74 0 0.0 0.0 0.00 0.00 0.00 66 1014.6